Weather History for KLOZ - December, 2011

Change the Weather History Date:

Monday, December 26, 2011

  Actual Average Record
Temperature  
Mean Temperature 35 °F 36 °F  
Max Temperature 45 °F 45 °F 70 °F (1987)
Min Temperature 24 °F 28 °F 1 °F (1966)
Degree Days  
Heating Degree Days 30 29  
Month to date heating degree days 602 677  
Since 1 July heating degree days 1454 1507  
Cooling Degree Days 0 0  
Month to date cooling degree days 0 0  
Year to date cooling degree days 1249  
Moisture  
Dew Point 27 °F    
Average Humidity 73    
Maximum Humidity 92    
Minimum Humidity 53    
Precipitation  
Precipitation 0.00 in 0.13 in 1.36 in (1982)
Month to date precipitation 3.29 3.63  
Year to date precipitation 60.19  
Sea Level Pressure  
Sea Level Pressure 30.26 in    
Wind  
Wind Speed 2 mph (East)    
Max Wind Speed 10 mph    
Max Gust Speed 14 mph    
Visibility 10 miles    
Events      
T = Trace of Precipitation, MM = Missing Value Source: NWS Daily Summary

Daily Weather History Graph

Daily Weather History Graph

Search for Another Location

Airport or City:

Trip Planner

Search our weather history database for the weather conditions in past years. The results will help you decide how hot, cold, wet, or windy it might be!

Date:

Astronomy

Dec. 26, 2011 Rise Set
Actual Time 7:48 AM EST 5:25 PM EST
Civil Twilight 7:19 AM EST 5:54 PM EST
Nautical Twilight 6:46 AM EST 6:27 PM EST
Astronomical Twilight 6:14 AM EST 6:58 PM EST
Moon 9:09 AM EST (12/26) 7:49 PM EST (12/26)
Length of Visible Light 10h 35m
Length of Day
9h 37m
Waxing Crescent, 5% of the Moon is Illuminated
Dec 26
Waxing Crescent
Jan 1
First Quarter
Jan 9
Full
Jan 16
Last Quarter
Jan 23
New

Hourly Weather History & Observations

Time (EST) Temp. Windchill Dew Point Humidity Pressure Visibility Wind Dir Wind Speed Gust Speed Precip Events Conditions
12:53 AM 37.0 °F 33.3 °F 26.1 °F 65% 30.33 in 10.0 mi North 4.6 mph - N/A   Clear
1:53 AM 35.1 °F 32.2 °F 26.1 °F 70% 30.34 in 10.0 mi NW 3.5 mph - N/A   Clear
2:53 AM 33.1 °F - 26.1 °F 75% 30.36 in 10.0 mi Calm Calm - N/A   Clear
3:53 AM 28.0 °F - 24.1 °F 85% 30.37 in 10.0 mi Calm Calm - N/A   Clear
4:53 AM 26.1 °F 21.9 °F 24.1 °F 92% 30.36 in 10.0 mi NNE 3.5 mph - N/A   Clear
5:53 AM 27.0 °F - 24.1 °F 89% 30.38 in 10.0 mi Calm Calm - N/A   Clear
6:53 AM 24.8 °F - 23.0 °F 93% 30.37 in 10.0 mi Calm Calm - N/A   Clear
7:53 AM 26.1 °F - 23.0 °F 88% 30.40 in 10.0 mi Calm Calm - N/A   Clear
8:53 AM 28.0 °F - 26.1 °F 92% 30.41 in 10.0 mi Calm Calm - N/A   Clear
9:53 AM 34.0 °F - 28.9 °F 82% 30.40 in 10.0 mi Calm Calm - N/A   Clear
10:53 AM 37.0 °F 31.6 °F 28.9 °F 73% 30.40 in 10.0 mi East 6.9 mph - N/A   Clear
11:53 AM 39.0 °F 34.0 °F 28.0 °F 65% 30.37 in 10.0 mi SE 6.9 mph - N/A   Clear
12:53 PM 42.1 °F 36.6 °F 28.0 °F 58% 30.30 in 10.0 mi SE 9.2 mph - N/A   Clear
1:53 PM 44.1 °F 40.1 °F 28.0 °F 53% 30.27 in 10.0 mi Variable 6.9 mph - N/A   Clear
2:53 PM 44.1 °F 41.5 °F 28.0 °F 53% 30.23 in 10.0 mi East 4.6 mph - N/A   Clear
3:53 PM 44.1 °F - 28.0 °F 53% 30.20 in 10.0 mi Calm Calm - N/A   Clear
4:53 PM 44.1 °F 42.5 °F 28.0 °F 53% 30.18 in 10.0 mi East 3.5 mph - N/A   Clear
5:53 PM 43.0 °F - 28.0 °F 56% 30.16 in 10.0 mi Calm Calm - N/A   Clear
6:53 PM 42.1 °F - 28.0 °F 58% 30.16 in 10.0 mi Calm Calm - N/A   Clear
7:53 PM 39.9 °F - 30.0 °F 68% 30.12 in 10.0 mi Calm Calm - N/A   Clear
8:53 PM 41.0 °F 38.0 °F 28.0 °F 60% 30.07 in 10.0 mi WSW 4.6 mph - N/A   Clear
9:53 PM 41.0 °F - 28.9 °F 62% 30.02 in 10.0 mi Calm Calm - N/A   Partly Cloudy
10:53 PM 39.0 °F - 30.9 °F 73% 30.00 in 10.0 mi Calm Calm - N/A   Clear
11:53 PM 39.9 °F - 30.0 °F 68% 29.97 in 10.0 mi Calm Calm - N/A   Scattered Clouds